{"data":{"norad_id":57704,"intl_designator":"2023-129G","name":"STARLINK-30346","alt_names":[],"object_type":"PAYLOAD","status":"ACTIVE","operator":null,"country":"US","launch_date":"2023-08-27","launch_site_code":"AFETR","launch_vehicle":null,"mission":null,"orbit_class":"UNKNOWN","rcs_meters":null,"size_class":null,"mass_kg":null,"dimensions":null,"purposes":["comms"],"wikipedia_slug":null,"has_3d_model":false,"image_url":null,"decayed_at":null,"tle_current":{"epoch":"2026-05-25T02:45:28.395072Z","epoch_age_seconds":62220,"freshness":"FRESH","line1":"1 57704U 23129G   26145.11491198  .00000324  00000+0  21289-4 0  9996","line2":"2 57704  43.0073  46.0583 0001801 265.7266  94.3380 15.27591041152237","mean_motion":15.27591041,"eccentricity":0.0001801,"inclination_deg":43.0073,"raan_deg":46.0583,"arg_perigee_deg":265.7266,"mean_anomaly_deg":94.338,"bstar":2.1289e-5,"rev_number":15223,"period_min":94.266067380006,"perigee_km":481.78034185111,"apogee_km":484.2517291745,"semimajor_km":6861.1530355128,"source":"CELESTRAK","updated_at":"2026-05-25T13:38:18.372174Z"}}}